STARLINK-2587, 48399

Orbit data source: Space-Track

STARLINK-2587, 48399 is a payload satellite owned by SpaceX/Seattle (US) in LEO that was launched on Tue, 04 May 2021 UTC via an FALCON 9 launch vehicle from the Air Force Eastern Test Range (AFETR). Payload-class satellites include a variety of spacecraft equipped with specific instruments for various scientific and technological missions. These include communications satellites like Starlink; space stations such as the ISS; scientific satellites like the Hubble; Earth observation satellites from companies like Planet Labs, Umbra, and HawkEye 360; GPS; miniature CubeSats for education and research; and military/defense satellites.

Loading next visibility...
Identifier
48399, 2021-038AY
Orbit
LEO
Country
Flag of USUS
Related business
Manufacturer
SpaceX/Seattle
Mission
Operational Commercial Communications
Bus & Motor
STARLINK, Unknown motor
Mass
260 kg wet, ~248 kg dry
Launch date (UTC)
2021-05-04 (5 years ago)
Launch vehicle
FALCON 9
Launch site
Air Force Eastern Test Range (AFETR)
Object type
Payload
Rocket body
Debris
Shape & HBR
Box + 1 Pan, 10.1 m
Radar Cross Section
13.562 m², Large (>1 m²)

Expand to show TLE details & history
Last TLE update: 2 days ago

TLE from 2 days ago
0 STARLINK-2587
1 48399U 21038AY  26171.42839132  .00000602  00000-0  31164-4 0  9993
2 48399  53.1561 214.6086 0001266  94.0573 266.0573 15.31704241284399
Epoch: 2026-06-20T10:16Z
TLE epoch observation values (Epoch: 2026-06-20T10:16:53.010Z)
Latitude
-0.00001°
Longitude
151.74456°
Altitude
471.687 km
Speed
7.631 km/s
True Right ascension
14h 18m 26s
True Declination
0° 00' 00"
Sunlit
Object was in full shadow at epoch
Visualization orbit readout
Latitude
Unknown
Longitude
Unknown
Altitude
Unknown
Speed
Unknown
Apparent Right ascension
Unknown
Apparent Declination
Unknown
Sunlit
N/A
Visualization observer readout
Local Sidereal Time
21:33:01
Azimuth
Unknown
Elevation
Unknown
Doppler factor
Unknown
Orbital elements
Apogee altitude
471.852 km
Perigee altitude
470.117 km
Semi-major axis
6,849.122 km
Eccentricity
0.00013
Inclination
53.1561°
RAAN
214.6086°
Arg. of periapsis
94.0573°
True anomaly
266.04283°
Mean anomaly
266.0573°
Eccentric anomaly
266.05006°
Mean motion
3.82905 °/min
Orbital period
94.02 mins
BSTAR
0.000031164
Loading maneuver chart data...
Computing Atmospheric mass density...

Documentation

Showing up to 5 results
|